loading
|

SCOUT A DEB, 2644

Orbit data source: Space-Track

SCOUT A DEB, 2644 is space debris in LEO originally from a launch on Thu, 19 May 1966 UTC launched from the Air Force Western Test Range (AFWTR). Debris objects in space refer to the collection of defunct objects orbiting the Earth. Examples of debris include non-operational satellites, rocket bodies, and fragments generated from explosions, collisions, or faulty payload assembly.

Loading next visibility...
Next conjunction unknown
Loading greatness...
SCOUT A DEB details
Identifier
2644, 1966-041D
Orbit
LEO
Last TLE update17 hours ago
Origin
Flag of USUSN NAVAIR (US)
ManufacturerUnknown
MissionSpacecraft
Bus & MotorUnknown bus, Unknown motor
MassUnknown
Launch date (UTC)
1966-05-19 (58 years ago)
Launch vehicleUnknown
Launch site
Air Force Western Test Range (AFWTR)
Object type
Payload
Rocket body
Debris
Shape & HBRUnknown
Radar Cross SectionSmall (<0.1 m²)

Expand to show TLE details & history

TLE from 17 hours ago
0 SCOUT A DEB
1 02644U 66041D   24285.30707032  .00006020  00000-0  51615-2 0  9994
2 02644  90.1456  35.2936 0215340  66.6910 295.6758 13.76687431914219
Epoch: 2024-10-11T07:22Z
Definitive object data (Epoch: 2024-10-11T07:22:10.875Z)
Latitude-0.00004°
Longitude-95.63086°
Altitude912.835 km
Speed7.428 km/s
True Right ascension02h 21m 10s
True Declination0° 00' 00"
Sunlit
Object was in full shadow at TLE epoch
Predictive object data (real-time)
Latitude-3.32502°
Longitude-95.61128°
Altitude916.074 km
Speed7.425 km/s
Apparent Right ascension04h 13m 46s
Apparent Declination-24° 22' 05"
Sunlit
Object is in full shadow
Predictive observer data (real-time)
Local Sidereal Time19:11:45
Azimuth81.057° E
Elevation-49.738°
Doppler factor1
Orbital elements
Apogee1,130.961 km
Perigee814.376 km
Semi-major axis7,350.805 km
Eccentricity0.021534
Inclination90.1456°
RAAN35.2936°
Arg. of periapsis66.691°
True anomaly293.42619°
Mean anomaly295.6758°
Eccentric anomaly294.55356°
Mean motion3.44382 °/min
BSTAR0.0051615
Period104.54 mins
No data available

SCOUT A DEB Visibility forecast

Observer location: 39.9160978°, -105.1181434

Span
Click to sort rows by Start time (UTC) header in descending order
Start Az.
Max El. time (UTC)
Max El. Az.
Max El.
End time (UTC)
End Az.
9 mins2024-10-12 07:54:51.067Z179.024° S2024-10-12 07:58:51.067Z319.192° NNW44.718°2024-10-12 08:03:51.067Z356.471° N
8 mins2024-10-12 18:51:51.067Z42.341° NE2024-10-12 18:54:51.067Z86.684° E25.493°2024-10-12 18:59:51.067Z142.46° SSE
8 mins2024-10-12 20:35:51.067Z333.95° NNW2024-10-12 20:38:51.067Z287.005° WNW31.627°2024-10-12 20:43:51.067Z217.913° SW